Time,TemperatureF,DewpointF,PressureIn,WindDirection,WindDirectionDegrees,WindSpeedMPH,WindSpeedGustMPH,Humidity,HourlyPrecipIn,Conditions,Clouds,dailyrainin,SolarRadiationWatts/m^2,SoftwareType,DateUTC
2013-01-23 00:00:00,10.5,4.1,30.33,NW,311,0.0,0.0,75,0.00,,,0.00,0,Wunderground v.1.15,2013-01-23 05:00:00,
2013-01-23 00:01:00,10.5,4.4,30.33,NW,311,0.0,0.0,76,0.00,,,0.00,0,Wunderground v.1.15,2013-01-23 05:01:00,
2013-01-23 00:02:00,10.5,4.4,30.33,NW,311,0.0,0.0,76,0.00,,,0.00,0,Wunderground v.1.15,2013-01-23 05:02:00,
2013-01-23 00:05:00,10.4,4.3,30.33,NW,311,0.0,0.0,76,0.00,,,0.00,0,Wunderground v.1.15,2013-01-23 05:05:00,
2013-01-23 00:10:00,10.3,4.2,30.32,NW,311,0.0,0.0,76,0.00,,,0.00,0,Wunderground v.1.15,2013-01-23 05:10:00,
2013-01-23 00:15:00,10.2,4.1,30.32,NW,311,0.0,0.0,76,0.00,,,0.00,0,Wunderground v.1.15,2013-01-23 05:15:00,
2013-01-23 00:21:00,10.1,4.0,30.32,NW,311,0.0,0.0,76,0.00,,,0.00,0,Wunderground v.1.15,2013-01-23 05:21:00,
2013-01-23 00:26:00,10.0,4.2,30.32,NW,311,0.0,0.0,77,0.00,,,0.00,0,Wunderground v.1.15,2013-01-23 05:26:00,
2013-01-23 00:31:00,9.9,4.1,30.32,NW,311,0.0,0.0,77,0.00,,,0.00,0,Wunderground v.1.15,2013-01-23 05:31:00,
2013-01-23 00:37:00,9.8,4.0,30.32,NW,311,0.0,1.0,77,0.00,,,0.00,0,Wunderground v.1.15,2013-01-23 05:37:00,
2013-01-23 00:42:00,9.8,4.0,30.32,West,267,0.0,2.0,77,0.00,,,0.00,0,Wunderground v.1.15,2013-01-23 05:42:00,
2013-01-23 00:48:00,9.8,4.0,30.32,West,267,0.0,2.0,77,0.00,,,0.00,0,Wunderground v.1.15,2013-01-23 05:48:00,
2013-01-23 00:53:00,9.7,3.9,30.32,West,267,0.0,0.0,77,0.00,,,0.00,0,Wunderground v.1.15,2013-01-23 05:53:00,
2013-01-23 00:59:00,9.7,3.9,30.32,West,267,0.0,5.0,77,0.00,,,0.00,0,Wunderground v.1.15,2013-01-23 05:59:00,
2013-01-23 01:05:00,9.6,3.8,30.32,West,267,0.0,0.0,77,0.00,,,0.00,0,Wunderground v.1.15,2013-01-23 06:05:00,
2013-01-23 01:10:00,9.6,3.8,30.32,West,268,0.0,0.0,77,0.00,,,0.00,0,Wunderground v.1.15,2013-01-23 06:10:00,
2013-01-23 01:16:00,9.5,3.7,30.32,West,268,0.0,1.0,77,0.00,,,0.00,0,Wunderground v.1.15,2013-01-23 06:16:00,
2013-01-23 01:22:00,9.4,3.6,30.32,WSW,248,0.0,2.0,77,0.00,,,0.00,0,Wunderground v.1.15,2013-01-23 06:22:00,
2013-01-23 01:27:00,9.2,3.4,30.33,West,275,0.0,2.0,77,0.00,,,0.00,0,Wunderground v.1.15,2013-01-23 06:27:00,
2013-01-23 01:33:00,9.2,3.4,30.33,West,275,0.0,0.0,77,0.00,,,0.00,0,Wunderground v.1.15,2013-01-23 06:33:00,
2013-01-23 01:39:00,9.1,3.1,30.33,West,276,0.0,2.0,76,0.00,,,0.00,0,Wunderground v.1.15,2013-01-23 06:39:00,
2013-01-23 01:44:00,9.1,3.1,30.33,West,276,0.0,1.0,76,0.00,,,0.00,0,Wunderground v.1.15,2013-01-23 06:44:00,
2013-01-23 01:49:00,9.0,3.0,30.33,West,276,0.0,1.0,76,0.00,,,0.00,0,Wunderground v.1.15,2013-01-23 06:49:00,
2013-01-23 01:55:00,8.9,2.9,30.33,WSW,256,0.0,1.0,76,0.00,,,0.00,0,Wunderground v.1.15,2013-01-23 06:55:00,
2013-01-23 02:00:00,8.9,2.9,30.33,WSW,256,0.0,0.0,76,0.00,,,0.00,0,Wunderground v.1.15,2013-01-23 07:00:00,
2013-01-23 02:06:00,8.8,3.1,30.33,WSW,256,0.0,0.0,77,0.00,,,0.00,0,Wunderground v.1.15,2013-01-23 07:06:00,
2013-01-23 02:12:00,8.7,3.0,30.33,West,259,0.0,0.0,77,0.00,,,0.00,0,Wunderground v.1.15,2013-01-23 07:12:00,
2013-01-23 02:18:00,8.6,2.9,30.33,West,259,0.0,0.0,77,0.00,,,0.00,0,Wunderground v.1.15,2013-01-23 07:18:00,
2013-01-23 02:24:00,8.5,2.8,30.33,West,259,0.0,0.0,77,0.00,,,0.00,0,Wunderground v.1.15,2013-01-23 07:24:00,
2013-01-23 02:29:00,8.4,2.7,30.33,West,259,0.0,1.0,77,0.00,,,0.00,0,Wunderground v.1.15,2013-01-23 07:29:00,
2013-01-23 02:35:00,8.5,2.8,30.33,West,261,0.0,1.0,77,0.00,,,0.00,0,Wunderground v.1.15,2013-01-23 07:35:00,
2013-01-23 02:40:00,8.4,2.7,30.33,West,261,0.0,0.0,77,0.00,,,0.00,0,Wunderground v.1.15,2013-01-23 07:40:00,
2013-01-23 02:46:00,8.4,2.7,30.34,WNW,290,1.0,3.0,77,0.00,,,0.00,0,Wunderground v.1.15,2013-01-23 07:46:00,
2013-01-23 02:51:00,8.4,2.7,30.34,West,272,1.0,5.0,77,0.00,,,0.00,0,Wunderground v.1.15,2013-01-23 07:51:00,
2013-01-23 02:57:00,8.5,2.8,30.34,West,272,1.0,5.0,77,0.00,,,0.00,0,Wunderground v.1.15,2013-01-23 07:57:00,
2013-01-23 03:02:00,8.5,2.8,30.34,West,281,0.0,3.0,77,0.00,,,0.00,0,Wunderground v.1.15,2013-01-23 08:02:00,
2013-01-23 03:08:00,8.5,2.8,30.34,West,265,1.0,3.0,77,0.00,,,0.00,0,Wunderground v.1.15,2013-01-23 08:08:00,
2013-01-23 03:14:00,8.5,2.8,30.34,West,265,1.0,1.0,77,0.00,,,0.00,0,Wunderground v.1.15,2013-01-23 08:14:00,
2013-01-23 03:20:00,8.4,2.7,30.34,West,265,0.0,0.0,77,0.00,,,0.00,0,Wunderground v.1.15,2013-01-23 08:20:00,
2013-01-23 03:25:00,8.3,2.6,30.34,West,265,0.0,1.0,77,0.00,,,0.00,0,Wunderground v.1.15,2013-01-23 08:25:00,
2013-01-23 03:31:00,8.2,2.5,30.33,West,265,0.0,0.0,77,0.00,,,0.00,0,Wunderground v.1.15,2013-01-23 08:31:00,
2013-01-23 03:36:00,8.2,2.5,30.33,West,270,0.0,3.0,77,0.00,,,0.00,0,Wunderground v.1.15,2013-01-23 08:36:00,
2013-01-23 03:42:00,8.1,2.4,30.34,WSW,251,0.0,4.0,77,0.00,,,0.00,0,Wunderground v.1.15,2013-01-23 08:42:00,
2013-01-23 03:47:00,8.1,2.4,30.33,WSW,251,0.0,4.0,77,0.00,,,0.00,0,Wunderground v.1.15,2013-01-23 08:47:00,
2013-01-23 03:53:00,8.1,2.4,30.33,WSW,251,0.0,1.0,77,0.00,,,0.00,0,Wunderground v.1.15,2013-01-23 08:53:00,
2013-01-23 03:58:00,8.0,2.3,30.33,WSW,258,0.0,1.0,77,0.00,,,0.00,0,Wunderground v.1.15,2013-01-23 08:58:00,
2013-01-23 04:04:00,8.0,2.3,30.33,West,279,1.0,1.0,77,0.00,,,0.00,0,Wunderground v.1.15,2013-01-23 09:04:00,
2013-01-23 04:10:00,8.1,2.4,30.34,West,279,0.0,0.0,77,0.00,,,0.00,0,Wunderground v.1.15,2013-01-23 09:10:00,
2013-01-23 04:15:00,8.0,2.3,30.34,West,279,0.0,0.0,77,0.00,,,0.00,0,Wunderground v.1.15,2013-01-23 09:15:00,
2013-01-23 04:20:00,8.0,2.3,30.34,West,279,0.0,0.0,77,0.00,,,0.00,0,Wunderground v.1.15,2013-01-23 09:20:00,
2013-01-23 04:25:00,7.8,2.1,30.34,West,279,0.0,0.0,77,0.00,,,0.00,0,Wunderground v.1.15,2013-01-23 09:25:00,
2013-01-23 04:31:00,7.7,2.0,30.34,West,279,0.0,0.0,77,0.00,,,0.00,0,Wunderground v.1.15,2013-01-23 09:31:00,
2013-01-23 04:37:00,7.6,1.9,30.33,West,279,0.0,1.0,77,0.00,,,0.00,0,Wunderground v.1.15,2013-01-23 09:37:00,
2013-01-23 04:42:00,7.5,2.1,30.33,West,279,0.0,0.0,78,0.00,,,0.00,0,Wunderground v.1.15,2013-01-23 09:42:00,
2013-01-23 04:47:00,7.3,1.9,30.34,West,279,0.0,0.0,78,0.00,,,0.00,0,Wunderground v.1.15,2013-01-23 09:47:00,
2013-01-23 04:53:00,7.2,1.8,30.34,West,279,0.0,0.0,78,0.00,,,0.00,0,Wunderground v.1.15,2013-01-23 09:53:00,
2013-01-23 04:58:00,7.1,1.7,30.34,West,279,0.0,0.0,78,0.00,,,0.00,0,Wunderground v.1.15,2013-01-23 09:58:00,
2013-01-23 05:04:00,7.1,1.7,30.34,West,279,0.0,0.0,78,0.00,,,0.00,0,Wunderground v.1.15,2013-01-23 10:04:00,
2013-01-23 05:09:00,7.1,1.7,30.34,West,279,0.0,0.0,78,0.00,,,0.00,0,Wunderground v.1.15,2013-01-23 10:09:00,
2013-01-23 05:15:00,7.1,1.7,30.34,West,279,0.0,0.0,78,0.00,,,0.00,0,Wunderground v.1.15,2013-01-23 10:15:00,
2013-01-23 05:20:00,7.0,1.6,30.34,West,279,0.0,0.0,78,0.00,,,0.00,0,Wunderground v.1.15,2013-01-23 10:20:00,
2013-01-23 05:25:00,6.9,1.5,30.34,West,279,0.0,0.0,78,0.00,,,0.00,0,Wunderground v.1.15,2013-01-23 10:25:00,
2013-01-23 05:31:00,6.8,1.7,30.34,West,279,0.0,0.0,79,0.00,,,0.00,0,Wunderground v.1.15,2013-01-23 10:31:00,
2013-01-23 05:36:00,6.7,1.6,30.34,West,279,0.0,0.0,79,0.00,,,0.00,0,Wunderground v.1.15,2013-01-23 10:36:00,
2013-01-23 05:42:00,6.5,1.4,30.34,West,279,0.0,0.0,79,0.00,,,0.00,0,Wunderground v.1.15,2013-01-23 10:42:00,
2013-01-23 05:47:00,6.3,1.2,30.34,West,279,0.0,0.0,79,0.00,,,0.00,0,Wunderground v.1.15,2013-01-23 10:47:00,
2013-01-23 05:53:00,6.2,1.4,30.35,West,279,0.0,0.0,80,0.00,,,0.00,0,Wunderground v.1.15,2013-01-23 10:53:00,
2013-01-23 05:58:00,6.1,1.3,30.34,West,279,0.0,0.0,80,0.00,,,0.00,0,Wunderground v.1.15,2013-01-23 10:58:00,
2013-01-23 06:04:00,6.0,1.2,30.34,West,279,0.0,0.0,80,0.00,,,0.00,0,Wunderground v.1.15,2013-01-23 11:04:00,
2013-01-23 06:09:00,5.9,1.3,30.34,West,279,0.0,0.0,81,0.00,,,0.00,0,Wunderground v.1.15,2013-01-23 11:09:00,
2013-01-23 06:15:00,5.8,1.2,30.34,West,279,0.0,0.0,81,0.00,,,0.00,0,Wunderground v.1.15,2013-01-23 11:15:00,
2013-01-23 06:20:00,5.7,1.1,30.34,West,279,0.0,0.0,81,0.00,,,0.00,0,Wunderground v.1.15,2013-01-23 11:20:00,
2013-01-23 06:26:00,5.6,1.3,30.34,West,279,0.0,0.0,82,0.00,,,0.00,0,Wunderground v.1.15,2013-01-23 11:26:00,
2013-01-23 06:31:00,5.6,1.3,30.35,West,279,0.0,0.0,82,0.00,,,0.00,0,Wunderground v.1.15,2013-01-23 11:31:00,
2013-01-23 06:37:00,5.5,1.2,30.35,West,279,0.0,0.0,82,0.00,,,0.00,0,Wunderground v.1.15,2013-01-23 11:37:00,
2013-01-23 06:42:00,5.5,1.2,30.35,West,279,0.0,0.0,82,0.00,,,0.00,0,Wunderground v.1.15,2013-01-23 11:42:00,
2013-01-23 06:48:00,5.4,1.1,30.35,West,279,0.0,0.0,82,0.00,,,0.00,0,Wunderground v.1.15,2013-01-23 11:48:00,
2013-01-23 06:53:00,5.4,1.1,30.35,West,279,0.0,0.0,82,0.00,,,0.00,0,Wunderground v.1.15,2013-01-23 11:53:00,
2013-01-23 06:58:00,5.3,1.3,30.35,West,279,0.0,0.0,83,0.00,,,0.00,0,Wunderground v.1.15,2013-01-23 11:58:00,
2013-01-23 07:03:00,5.3,1.3,30.35,West,279,0.0,0.0,83,0.00,,,0.00,0,Wunderground v.1.15,2013-01-23 12:03:00,
2013-01-23 07:09:00,5.2,1.2,30.36,West,279,0.0,0.0,83,0.00,,,0.00,0,Wunderground v.1.15,2013-01-23 12:09:00,
2013-01-23 07:14:00,5.1,1.1,30.36,West,279,0.0,0.0,83,0.00,,,0.00,0,Wunderground v.1.15,2013-01-23 12:14:00,
2013-01-23 07:20:00,5.0,1.0,30.35,West,279,0.0,0.0,83,0.00,,,0.00,0,Wunderground v.1.15,2013-01-23 12:20:00,
2013-01-23 07:25:00,5.0,1.0,30.35,West,279,0.0,0.0,83,0.00,,,0.00,0,Wunderground v.1.15,2013-01-23 12:25:00,
2013-01-23 07:30:00,5.0,1.0,30.35,West,279,0.0,0.0,83,0.00,,,0.00,0,Wunderground v.1.15,2013-01-23 12:30:00,
2013-01-23 07:36:00,4.9,1.1,30.35,West,279,0.0,0.0,84,0.00,,,0.00,0,Wunderground v.1.15,2013-01-23 12:36:00,
2013-01-23 07:41:00,5.0,1.2,30.35,West,279,0.0,0.0,84,0.00,,,0.00,5,Wunderground v.1.15,2013-01-23 12:41:00,
2013-01-23 07:47:00,5.1,1.3,30.35,West,279,0.0,0.0,84,0.00,,,0.00,7,Wunderground v.1.15,2013-01-23 12:47:00,
2013-01-23 07:52:00,5.3,1.5,30.35,West,279,0.0,0.0,84,0.00,,,0.00,11,Wunderground v.1.15,2013-01-23 12:52:00,
2013-01-23 07:58:00,5.4,1.6,30.35,West,279,0.0,0.0,84,0.00,,,0.00,12,Wunderground v.1.15,2013-01-23 12:58:00,
2013-01-23 08:03:00,5.6,1.8,30.35,West,279,0.0,0.0,84,0.00,,,0.00,16,Wunderground v.1.15,2013-01-23 13:03:00,
2013-01-23 08:09:00,6.0,2.2,30.35,West,279,0.0,2.0,84,0.00,,,0.00,25,Wunderground v.1.15,2013-01-23 13:09:00,
2013-01-23 08:14:00,6.5,2.7,30.35,SSW,207,1.0,2.0,84,0.00,,,0.00,30,Wunderground v.1.15,2013-01-23 13:14:00,
2013-01-23 08:19:00,7.1,3.0,30.35,SSW,207,1.0,2.0,83,0.00,,,0.00,42,Wunderground v.1.15,2013-01-23 13:19:00,
2013-01-23 08:25:00,7.7,3.1,30.35,SSW,207,1.0,4.0,81,0.00,,,0.00,44,Wunderground v.1.15,2013-01-23 13:25:00,
2013-01-23 08:30:00,8.2,3.3,30.35,SSW,207,1.0,3.0,80,0.00,,,0.00,44,Wunderground v.1.15,2013-01-23 13:30:00,
2013-01-23 08:35:00,8.5,3.3,30.35,SSW,209,2.0,5.0,79,0.00,,,0.00,56,Wunderground v.1.15,2013-01-23 13:35:00,
2013-01-23 08:41:00,8.9,3.7,30.36,SSW,213,2.0,2.0,79,0.00,,,0.00,54,Wunderground v.1.15,2013-01-23 13:41:00,
2013-01-23 08:46:00,9.3,3.8,30.36,SSW,212,1.0,3.0,78,0.00,,,0.00,81,Wunderground v.1.15,2013-01-23 13:46:00,
2013-01-23 08:52:00,9.8,4.0,30.36,SW,225,1.0,6.0,77,0.00,,,0.00,97,Wunderground v.1.15,2013-01-23 13:52:00,
2013-01-23 08:57:00,10.3,3.9,30.36,SSW,204,2.0,6.0,75,0.00,,,0.00,90,Wunderground v.1.15,2013-01-23 13:57:00,
2013-01-23 09:03:00,10.7,4.0,30.36,SSW,207,2.0,2.0,74,0.00,,,0.00,105,Wunderground v.1.15,2013-01-23 14:03:00,
2013-01-23 09:08:00,11.0,4.0,30.36,SW,214,1.0,2.0,73,0.00,,,0.00,77,Wunderground v.1.15,2013-01-23 14:08:00,
2013-01-23 09:14:00,11.4,4.4,30.36,NW,309,1.0,4.0,73,0.00,,,0.00,120,Wunderground v.1.15,2013-01-23 14:14:00,
2013-01-23 09:20:00,12.1,4.8,30.36,West,265,1.0,1.0,72,0.00,,,0.00,127,Wunderground v.1.15,2013-01-23 14:20:00,
2013-01-23 09:25:00,12.5,4.3,30.36,West,259,1.0,4.0,69,0.00,,,0.00,144,Wunderground v.1.15,2013-01-23 14:25:00,
2013-01-23 09:30:00,12.7,4.4,30.36,SW,225,2.0,2.0,69,0.00,,,0.00,144,Wunderground v.1.15,2013-01-23 14:30:00,
2013-01-23 09:36:00,13.2,4.6,30.37,WSW,250,2.0,5.0,68,0.00,,,0.00,146,Wunderground v.1.15,2013-01-23 14:36:00,
2013-01-23 09:41:00,13.4,4.8,30.37,WNW,294,2.0,2.0,68,0.00,,,0.00,149,Wunderground v.1.15,2013-01-23 14:41:00,
2013-01-23 09:47:00,13.7,5.1,30.36,WNW,284,1.0,6.0,68,0.00,,,0.00,162,Wunderground v.1.15,2013-01-23 14:47:00,
2013-01-23 09:52:00,14.1,5.1,30.36,SW,236,1.0,3.0,67,0.00,,,0.00,192,Wunderground v.1.15,2013-01-23 14:52:00,
2013-01-23 09:57:00,14.3,5.0,30.37,WSW,250,1.0,3.0,66,0.00,,,0.00,190,Wunderground v.1.15,2013-01-23 14:57:00,
2013-01-23 10:03:00,14.4,4.8,30.36,SW,228,1.0,4.0,65,0.00,,,0.00,227,Wunderground v.1.15,2013-01-23 15:03:00,
2013-01-23 10:09:00,14.4,4.4,30.36,WSW,245,3.0,7.0,64,0.00,,,0.00,130,Wunderground v.1.15,2013-01-23 15:09:00,
2013-01-23 10:14:00,14.3,4.0,30.36,WSW,252,2.0,3.0,63,0.00,,,0.00,151,Wunderground v.1.15,2013-01-23 15:14:00,
2013-01-23 10:20:00,14.1,3.8,30.36,NNW,339,2.0,2.0,63,0.00,,,0.00,111,Wunderground v.1.15,2013-01-23 15:20:00,
2013-01-23 10:25:00,14.1,4.8,30.36,West,281,2.0,5.0,66,0.00,,,0.00,135,Wunderground v.1.15,2013-01-23 15:25:00,
2013-01-23 10:31:00,14.1,4.1,30.35,WNW,302,2.0,5.0,64,0.00,,,0.00,107,Wunderground v.1.15,2013-01-23 15:31:00,
2013-01-23 10:36:00,14.3,4.7,30.35,WNW,293,3.0,7.0,65,0.00,,,0.00,301,Wunderground v.1.15,2013-01-23 15:36:00,
2013-01-23 10:42:00,14.7,4.7,30.35,West,265,3.0,4.0,64,0.00,,,0.00,304,Wunderground v.1.15,2013-01-23 15:42:00,
2013-01-23 10:47:00,14.9,4.6,30.35,SW,233,3.0,5.0,63,0.00,,,0.00,285,Wunderground v.1.15,2013-01-23 15:47:00,
2013-01-23 10:53:00,15.3,4.9,30.35,WNW,282,2.0,5.0,63,0.00,,,0.00,257,Wunderground v.1.15,2013-01-23 15:53:00,
2013-01-23 10:58:00,15.5,4.8,30.35,West,261,3.0,5.0,62,0.00,,,0.00,206,Wunderground v.1.15,2013-01-23 15:58:00,
2013-01-23 11:04:00,15.5,4.8,30.35,SW,225,3.0,4.0,62,0.00,,,0.00,209,Wunderground v.1.15,2013-01-23 16:04:00,
2013-01-23 11:09:00,15.5,4.8,30.35,WNW,295,2.0,5.0,62,0.00,,,0.00,248,Wunderground v.1.15,2013-01-23 16:09:00,
2013-01-23 11:15:00,15.7,5.3,30.35,West,277,3.0,7.0,63,0.00,,,0.00,265,Wunderground v.1.15,2013-01-23 16:15:00,
2013-01-23 11:21:00,15.9,5.2,30.34,NW,315,3.0,5.0,62,0.00,,,0.00,244,Wunderground v.1.15,2013-01-23 16:21:00,
2013-01-23 13:12:00,17.0,5.1,30.28,NW,320,2.0,2.0,59,0.00,,,0.00,197,Wunderground v.1.15,2013-01-23 18:12:00,
2013-01-23 13:17:00,17.1,5.9,30.27,WSW,252,2.0,9.0,61,0.00,,,0.00,348,Wunderground v.1.15,2013-01-23 18:17:00,
2013-01-23 13:23:00,17.6,6.1,30.27,WNW,287,4.0,4.0,60,0.00,,,0.00,267,Wunderground v.1.15,2013-01-23 18:23:00,
2013-01-23 13:28:00,17.9,6.3,30.27,WNW,303,1.0,9.0,60,0.00,,,0.00,262,Wunderground v.1.15,2013-01-23 18:28:00,
2013-01-23 13:33:00,18.0,6.1,30.27,SW,236,4.0,6.0,59,0.00,,,0.00,299,Wunderground v.1.15,2013-01-23 18:33:00,
2013-01-23 13:38:00,18.0,5.3,30.27,WSW,246,1.0,6.0,57,0.00,,,0.00,225,Wunderground v.1.15,2013-01-23 18:38:00,
2013-01-23 13:43:00,17.9,5.2,30.27,West,275,1.0,5.0,57,0.00,,,0.00,225,Wunderground v.1.15,2013-01-23 18:43:00,
2013-01-23 13:48:00,18.0,5.3,30.27,NNW,327,7.0,7.0,57,0.00,,,0.00,225,Wunderground v.1.15,2013-01-23 18:48:00,
2013-01-23 13:53:00,18.0,5.3,30.26,West,266,0.0,8.0,57,0.00,,,0.00,197,Wunderground v.1.15,2013-01-23 18:53:00,
2013-01-23 13:58:00,17.9,5.2,30.26,WSW,244,4.0,8.0,57,0.00,,,0.00,185,Wunderground v.1.15,2013-01-23 18:58:00,
2013-01-23 14:03:00,17.9,5.6,30.26,NW,323,6.0,7.0,58,0.00,,,0.00,188,Wunderground v.1.15,2013-01-23 19:03:00,
2013-01-23 14:08:00,18.0,5.7,30.26,WNW,302,0.0,7.0,58,0.00,,,0.00,183,Wunderground v.1.15,2013-01-23 19:08:00,
2013-01-23 14:13:00,18.0,5.3,30.27,WNW,297,5.0,7.0,57,0.00,,,0.00,179,Wunderground v.1.15,2013-01-23 19:13:00,
2013-01-23 14:18:00,18.0,5.7,30.26,NW,317,6.0,8.0,58,0.00,,,0.00,186,Wunderground v.1.15,2013-01-23 19:18:00,
2013-01-23 14:24:00,18.1,5.8,30.26,NW,305,2.0,7.0,58,0.00,,,0.00,179,Wunderground v.1.15,2013-01-23 19:24:00,
2013-01-23 14:29:00,18.3,6.0,30.26,NNW,329,4.0,9.0,58,0.00,,,0.00,163,Wunderground v.1.15,2013-01-23 19:29:00,
2013-01-23 14:34:00,18.3,6.0,30.26,WNW,291,1.0,9.0,58,0.00,,,0.00,163,Wunderground v.1.15,2013-01-23 19:34:00,
2013-01-23 14:39:00,18.3,6.0,30.26,NW,306,4.0,9.0,58,0.00,,,0.00,162,Wunderground v.1.15,2013-01-23 19:39:00,
2013-01-23 14:44:00,18.2,5.5,30.26,NW,311,8.0,11.0,57,0.00,,,0.00,153,Wunderground v.1.15,2013-01-23 19:44:00,
2013-01-23 14:49:00,18.1,5.8,30.26,WNW,290,0.0,11.0,58,0.00,,,0.00,144,Wunderground v.1.15,2013-01-23 19:49:00,
2013-01-23 14:54:00,18.1,5.8,30.26,West,281,1.0,9.0,58,0.00,,,0.00,134,Wunderground v.1.15,2013-01-23 19:54:00,
2013-01-23 14:59:00,18.2,5.9,30.26,West,277,2.0,9.0,58,0.00,,,0.00,125,Wunderground v.1.15,2013-01-23 19:59:00,
2013-01-23 15:04:00,18.2,5.5,30.26,WNW,283,0.0,7.0,57,0.00,,,0.00,116,Wunderground v.1.15,2013-01-23 20:04:00,
2013-01-23 15:09:00,18.1,5.8,30.25,WNW,284,6.0,7.0,58,0.00,,,0.00,118,Wunderground v.1.15,2013-01-23 20:09:00,
2013-01-23 15:14:00,18.1,5.8,30.25,West,272,1.0,6.0,58,0.00,,,0.00,120,Wunderground v.1.15,2013-01-23 20:14:00,
2013-01-23 15:19:00,18.1,5.8,30.25,West,259,4.0,6.0,58,0.00,,,0.00,120,Wunderground v.1.15,2013-01-23 20:19:00,
2013-01-23 15:24:00,18.1,5.8,30.25,West,263,2.0,4.0,58,0.00,,,0.00,125,Wunderground v.1.15,2013-01-23 20:24:00,
2013-01-23 15:29:00,18.0,5.7,30.25,West,275,7.0,7.0,58,0.00,,,0.00,114,Wunderground v.1.15,2013-01-23 20:29:00,
2013-01-23 15:35:00,18.0,5.7,30.25,WNW,300,4.0,5.0,58,0.00,,,0.00,107,Wunderground v.1.15,2013-01-23 20:35:00,
2013-01-23 15:40:00,18.1,5.8,30.25,NW,306,0.0,2.0,58,0.00,,,0.00,100,Wunderground v.1.15,2013-01-23 20:40:00,
2013-01-23 15:45:00,18.0,5.3,30.25,WNW,293,0.0,6.0,57,0.00,,,0.00,95,Wunderground v.1.15,2013-01-23 20:45:00,
2013-01-23 15:50:00,17.9,5.2,30.24,WSW,243,1.0,2.0,57,0.00,,,0.00,90,Wunderground v.1.15,2013-01-23 20:50:00,
2013-01-23 15:55:00,17.9,5.6,30.24,West,268,1.0,5.0,58,0.00,,,0.00,90,Wunderground v.1.15,2013-01-23 20:55:00,
2013-01-23 16:00:00,17.9,6.0,30.24,WSW,248,0.0,1.0,59,0.00,,,0.00,88,Wunderground v.1.15,2013-01-23 21:00:00,
2013-01-23 16:06:00,18.0,5.7,30.24,NW,319,4.0,4.0,58,0.00,,,0.00,77,Wunderground v.1.15,2013-01-23 21:06:00,
2013-01-23 16:11:00,18.1,6.2,30.24,WNW,298,1.0,1.0,59,0.00,,,0.00,69,Wunderground v.1.15,2013-01-23 21:11:00,
2013-01-23 16:16:00,18.1,5.4,30.24,NW,304,4.0,8.0,57,0.00,,,0.00,60,Wunderground v.1.15,2013-01-23 21:16:00,
2013-01-23 16:21:00,18.1,5.4,30.23,West,281,1.0,3.0,57,0.00,,,0.00,58,Wunderground v.1.15,2013-01-23 21:21:00,
2013-01-23 16:26:00,18.1,5.4,30.24,WSW,246,1.0,5.0,57,0.00,,,0.00,54,Wunderground v.1.15,2013-01-23 21:26:00,
2013-01-23 16:31:00,18.0,4.9,30.24,WSW,246,1.0,2.0,56,0.00,,,0.00,49,Wunderground v.1.15,2013-01-23 21:31:00,
2013-01-23 16:37:00,18.0,4.9,30.24,WSW,246,0.0,2.0,56,0.00,,,0.00,44,Wunderground v.1.15,2013-01-23 21:37:00,
2013-01-23 16:42:00,18.0,4.9,30.23,WSW,245,0.0,0.0,56,0.00,,,0.00,37,Wunderground v.1.15,2013-01-23 21:42:00,
2013-01-23 16:47:00,18.0,4.9,30.24,WNW,298,0.0,6.0,56,0.00,,,0.00,32,Wunderground v.1.15,2013-01-23 21:47:00,
2013-01-23 16:52:00,18.0,4.5,30.23,WNW,289,0.0,2.0,55,0.00,,,0.00,25,Wunderground v.1.15,2013-01-23 21:52:00,
2013-01-23 16:57:00,18.0,4.5,30.23,WNW,288,0.0,2.0,55,0.00,,,0.00,19,Wunderground v.1.15,2013-01-23 21:57:00,
2013-01-23 17:02:00,17.9,4.4,30.23,NNW,327,0.0,0.0,55,0.00,,,0.00,14,Wunderground v.1.15,2013-01-23 22:02:00,
2013-01-23 17:07:00,17.9,4.8,30.23,NW,313,2.0,4.0,56,0.00,,,0.00,11,Wunderground v.1.15,2013-01-23 22:07:00,
2013-01-23 17:13:00,17.9,4.8,30.23,NW,319,1.0,7.0,56,0.00,,,0.00,7,Wunderground v.1.15,2013-01-23 22:13:00,
2013-01-23 17:18:00,17.8,4.7,30.22,NNW,338,0.0,7.0,56,0.00,,,0.00,5,Wunderground v.1.15,2013-01-23 22:18:00,
2013-01-23 17:23:00,17.7,4.6,30.22,WNW,286,3.0,7.0,56,0.00,,,0.00,0,Wunderground v.1.15,2013-01-23 22:23:00,
2013-01-23 17:28:00,17.7,5.0,30.22,WNW,291,0.0,7.0,57,0.00,,,0.00,0,Wunderground v.1.15,2013-01-23 22:28:00,
2013-01-23 17:33:00,17.7,5.4,30.22,WNW,291,0.0,1.0,58,0.00,,,0.00,0,Wunderground v.1.15,2013-01-23 22:33:00,
2013-01-23 17:38:00,17.7,5.0,30.22,WNW,291,0.0,2.0,57,0.00,,,0.00,0,Wunderground v.1.15,2013-01-23 22:38:00,
2013-01-23 17:43:00,17.7,5.4,30.22,WNW,291,0.0,1.0,58,0.00,,,0.00,0,Wunderground v.1.15,2013-01-23 22:43:00,
2013-01-23 17:48:00,17.7,5.4,30.22,WNW,291,0.0,1.0,58,0.00,,,0.00,0,Wunderground v.1.15,2013-01-23 22:48:00,
2013-01-23 17:53:00,17.6,5.3,30.22,WNW,291,0.0,0.0,58,0.00,,,0.00,0,Wunderground v.1.15,2013-01-23 22:53:00,
2013-01-23 17:59:00,17.6,5.7,30.22,WSW,251,0.0,0.0,59,0.00,,,0.00,0,Wunderground v.1.15,2013-01-23 22:59:00,
2013-01-23 18:04:00,17.5,6.0,30.22,WSW,251,0.0,0.0,60,0.00,,,0.00,0,Wunderground v.1.15,2013-01-23 23:04:00,
2013-01-23 18:09:00,17.6,6.4,30.21,WSW,251,0.0,1.0,61,0.00,,,0.00,0,Wunderground v.1.15,2013-01-23 23:09:00,
2013-01-23 18:14:00,17.6,6.4,30.21,WSW,251,0.0,2.0,61,0.00,,,0.00,0,Wunderground v.1.15,2013-01-23 23:14:00,
2013-01-23 18:19:00,17.5,6.7,30.21,WSW,251,0.0,2.0,62,0.00,,,0.00,0,Wunderground v.1.15,2013-01-23 23:19:00,
2013-01-23 18:24:00,17.5,6.7,30.21,WSW,251,0.0,0.0,62,0.00,,,0.00,0,Wunderground v.1.15,2013-01-23 23:24:00,
2013-01-23 18:29:00,17.5,7.0,30.20,WSW,253,0.0,6.0,63,0.00,,,0.00,0,Wunderground v.1.15,2013-01-23 23:29:00,
2013-01-23 18:34:00,17.5,7.4,30.20,SW,223,5.0,5.0,64,0.00,,,0.00,0,Wunderground v.1.15,2013-01-23 23:34:00,
2013-01-23 18:39:00,17.5,7.7,30.20,SW,223,0.0,5.0,65,0.00,,,0.00,0,Wunderground v.1.15,2013-01-23 23:39:00,
2013-01-23 18:44:00,17.4,8.0,30.20,SW,223,0.0,1.0,66,0.00,,,0.00,0,Wunderground v.1.15,2013-01-23 23:44:00,
2013-01-23 18:49:00,17.4,8.0,30.20,SW,215,0.0,2.0,66,0.00,,,0.00,0,Wunderground v.1.15,2013-01-23 23:49:00,
2013-01-23 18:55:00,17.3,7.9,30.19,SW,215,0.0,2.0,66,0.00,,,0.00,0,Wunderground v.1.15,2013-01-23 23:55:00,
2013-01-23 19:00:00,17.3,8.2,30.19,SW,215,0.0,0.0,67,0.00,,,0.00,0,Wunderground v.1.15,2013-01-24 00:00:00,
2013-01-23 19:05:00,17.3,8.2,30.20,SW,215,0.0,0.0,67,0.00,,,0.00,0,Wunderground v.1.15,2013-01-24 00:05:00,
2013-01-23 19:10:00,17.3,8.2,30.20,SW,215,0.0,0.0,67,0.00,,,0.00,0,Wunderground v.1.15,2013-01-24 00:10:00,
2013-01-23 19:15:00,17.3,8.5,30.20,SW,215,0.0,1.0,68,0.00,,,0.00,0,Wunderground v.1.15,2013-01-24 00:15:00,
2013-01-23 19:20:00,17.3,8.2,30.20,SW,215,0.0,0.0,67,0.00,,,0.00,0,Wunderground v.1.15,2013-01-24 00:20:00,
2013-01-23 19:25:00,17.3,8.2,30.20,SW,215,0.0,0.0,67,0.00,,,0.00,0,Wunderground v.1.15,2013-01-24 00:25:00,
2013-01-23 19:30:00,17.3,8.2,30.20,SW,215,0.0,0.0,67,0.00,,,0.00,0,Wunderground v.1.15,2013-01-24 00:30:00,
2013-01-23 19:36:00,17.4,8.6,30.20,SW,215,2.0,2.0,68,0.00,,,0.00,0,Wunderground v.1.15,2013-01-24 00:36:00,
2013-01-23 19:41:00,17.4,8.6,30.19,SW,215,0.0,0.0,68,0.00,,,0.00,0,Wunderground v.1.15,2013-01-24 00:41:00,
2013-01-23 19:46:00,17.4,8.3,30.19,SW,215,0.0,1.0,67,0.00,,,0.00,0,Wunderground v.1.15,2013-01-24 00:46:00,
2013-01-23 19:51:00,17.4,8.6,30.19,SW,215,1.0,1.0,68,0.00,,,0.00,0,Wunderground v.1.15,2013-01-24 00:51:00,
2013-01-23 19:56:00,17.4,8.3,30.19,SW,215,0.0,1.0,67,0.00,,,0.00,0,Wunderground v.1.15,2013-01-24 00:56:00,
2013-01-23 20:02:00,17.5,8.7,30.18,SW,218,0.0,2.0,68,0.00,,,0.00,0,Wunderground v.1.15,2013-01-24 01:02:00,
2013-01-23 20:07:00,17.5,8.7,30.18,SW,218,1.0,2.0,68,0.00,,,0.00,0,Wunderground v.1.15,2013-01-24 01:07:00,
2013-01-23 20:13:00,17.5,9.1,30.18,SW,218,0.0,0.0,69,0.00,,,0.00,0,Wunderground v.1.15,2013-01-24 01:13:00,
2013-01-23 20:18:00,17.5,9.1,30.18,SW,218,0.0,0.0,69,0.00,,,0.00,0,Wunderground v.1.15,2013-01-24 01:18:00,
2013-01-23 20:24:00,17.4,9.0,30.18,SW,218,0.0,0.0,69,0.00,,,0.00,0,Wunderground v.1.15,2013-01-24 01:24:00,
2013-01-23 20:30:00,17.4,9.3,30.18,SW,217,0.0,0.0,70,0.00,,,0.00,0,Wunderground v.1.15,2013-01-24 01:30:00,
2013-01-23 20:35:00,17.3,9.2,30.18,SW,217,0.0,0.0,70,0.00,,,0.00,0,Wunderground v.1.15,2013-01-24 01:35:00,
2013-01-23 20:40:00,17.3,9.5,30.17,SW,217,0.0,0.0,71,0.00,,,0.00,0,Wunderground v.1.15,2013-01-24 01:40:00,
2013-01-23 20:45:00,17.2,9.4,30.18,SW,217,0.0,0.0,71,0.00,,,0.00,0,Wunderground v.1.15,2013-01-24 01:45:00,
2013-01-23 20:51:00,17.2,9.7,30.17,SW,217,0.0,0.0,72,0.00,,,0.00,0,Wunderground v.1.15,2013-01-24 01:51:00,
2013-01-23 20:56:00,17.1,9.9,30.17,SW,217,0.0,0.0,73,0.00,,,0.00,0,Wunderground v.1.15,2013-01-24 01:56:00,
2013-01-23 21:02:00,17.0,9.8,30.17,SW,217,0.0,0.0,73,0.00,,,0.00,0,Wunderground v.1.15,2013-01-24 02:02:00,
2013-01-23 21:07:00,17.0,10.1,30.18,SW,217,0.0,0.0,74,0.00,,,0.00,0,Wunderground v.1.15,2013-01-24 02:07:00,
2013-01-23 21:13:00,16.9,10.3,30.17,SW,217,0.0,0.0,75,0.00,,,0.00,0,Wunderground v.1.15,2013-01-24 02:13:00,
2013-01-23 21:18:00,16.8,10.2,30.17,SW,217,0.0,0.0,75,0.00,,,0.00,0,Wunderground v.1.15,2013-01-24 02:18:00,
2013-01-23 21:23:00,16.7,10.1,30.17,SW,217,0.0,0.0,75,0.00,,,0.00,0,Wunderground v.1.15,2013-01-24 02:23:00,
2013-01-23 21:28:00,16.7,10.4,30.17,SW,217,0.0,0.0,76,0.00,,,0.00,0,Wunderground v.1.15,2013-01-24 02:28:00,
2013-01-23 21:34:00,16.7,10.4,30.17,SW,217,0.0,0.0,76,0.00,,,0.00,0,Wunderground v.1.15,2013-01-24 02:34:00,
2013-01-23 21:39:00,16.6,10.6,30.17,SW,217,0.0,0.0,77,0.00,,,0.00,0,Wunderground v.1.15,2013-01-24 02:39:00,
2013-01-23 21:44:00,16.6,10.6,30.17,SW,217,0.0,0.0,77,0.00,,,0.00,0,Wunderground v.1.15,2013-01-24 02:44:00,
2013-01-23 21:50:00,16.4,10.4,30.17,SW,217,0.0,0.0,77,0.00,,,0.00,0,Wunderground v.1.15,2013-01-24 02:50:00,
2013-01-23 21:55:00,16.4,10.7,30.17,SW,217,0.0,0.0,78,0.00,,,0.00,0,Wunderground v.1.15,2013-01-24 02:55:00,
2013-01-23 22:01:00,16.3,10.6,30.17,SW,217,0.0,0.0,78,0.00,,,0.00,0,Wunderground v.1.15,2013-01-24 03:01:00,
2013-01-23 22:06:00,16.2,10.5,30.17,SW,217,0.0,0.0,78,0.00,,,0.00,0,Wunderground v.1.15,2013-01-24 03:06:00,
2013-01-23 22:12:00,16.1,10.7,30.17,SW,217,0.0,0.0,79,0.00,,,0.00,0,Wunderground v.1.15,2013-01-24 03:12:00,
2013-01-23 22:18:00,16.1,10.7,30.16,SW,217,0.0,0.0,79,0.00,,,0.00,0,Wunderground v.1.15,2013-01-24 03:18:00,
2013-01-23 22:24:00,15.9,10.8,30.16,SW,217,0.0,0.0,80,0.00,,,0.00,0,Wunderground v.1.15,2013-01-24 03:24:00,
2013-01-23 22:29:00,15.8,10.7,30.16,SW,217,0.0,0.0,80,0.00,,,0.00,0,Wunderground v.1.15,2013-01-24 03:29:00,
2013-01-23 22:34:00,15.7,10.9,30.15,SW,217,0.0,0.0,81,0.00,,,0.00,0,Wunderground v.1.15,2013-01-24 03:34:00,
2013-01-23 22:40:00,15.7,10.9,30.15,SW,217,0.0,0.0,81,0.00,,,0.00,0,Wunderground v.1.15,2013-01-24 03:40:00,
2013-01-23 22:46:00,15.7,11.2,30.15,SW,217,0.0,0.0,82,0.00,,,0.00,0,Wunderground v.1.15,2013-01-24 03:46:00,
2013-01-23 22:52:00,15.7,11.2,30.14,SW,217,0.0,0.0,82,0.00,,,0.00,0,Wunderground v.1.15,2013-01-24 03:52:00,
2013-01-23 22:57:00,15.7,11.5,30.14,SW,217,0.0,0.0,83,0.00,,,0.00,0,Wunderground v.1.15,2013-01-24 03:57:00,
2013-01-23 23:02:00,15.8,11.6,30.14,SW,217,0.0,0.0,83,0.00,,,0.00,0,Wunderground v.1.15,2013-01-24 04:02:00,
2013-01-23 23:07:00,15.9,11.7,30.14,SW,217,0.0,0.0,83,0.00,,,0.00,0,Wunderground v.1.15,2013-01-24 04:07:00,
2013-01-23 23:13:00,16.0,11.7,30.14,SW,217,0.0,0.0,83,0.00,,,0.00,0,Wunderground v.1.15,2013-01-24 04:13:00,
2013-01-23 23:18:00,16.1,11.8,30.13,SW,217,0.0,0.0,83,0.00,,,0.00,0,Wunderground v.1.15,2013-01-24 04:18:00,
2013-01-23 23:23:00,16.2,11.9,30.13,SW,217,0.0,0.0,83,0.00,,,0.00,0,Wunderground v.1.15,2013-01-24 04:23:00,
2013-01-23 23:28:00,16.3,12.0,30.13,SSW,196,0.0,2.0,83,0.00,,,0.00,0,Wunderground v.1.15,2013-01-24 04:28:00,
2013-01-23 23:34:00,16.3,12.0,30.13,SSW,196,0.0,0.0,83,0.00,,,0.00,0,Wunderground v.1.15,2013-01-24 04:34:00,
2013-01-23 23:41:00,16.4,12.4,30.13,South,169,0.0,0.0,84,0.00,,,0.00,0,Wunderground v.1.15,2013-01-24 04:41:00,
2013-01-23 23:46:00,16.4,12.4,30.13,South,169,0.0,0.0,84,0.00,,,0.00,0,Wunderground v.1.15,2013-01-24 04:46:00,
2013-01-23 23:52:00,16.4,12.4,30.13,South,169,0.0,0.0,84,0.00,,,0.00,0,Wunderground v.1.15,2013-01-24 04:52:00,
2013-01-23 23:58:00,16.4,12.4,30.12,South,169,0.0,0.0,84,0.00,,,0.00,0,Wunderground v.1.15,2013-01-24 04:58:00,